FW5910 Weather Reports


time (UTC)temp
F
wind
direction
speed
knots
gust
knots
rain 1hr
in
rain 24hr
in
rain mn
in
humidity
%
barometer
mb
20260510141631 50 0 0.9 2.6 0.00 0.00 0.00 59 1017.9
20260510141130 50 0 0.0 2.6 0.00 0.00 0.00 63 1018.0
20260510140630 50 0 0.0 0.9 0.00 0.00 0.00 65 1017.9
20260510140130 49 146 0.0 0.0 0.00 0.00 0.00 65 1017.9
20260510135635 48 167 0.0 1.7 0.00 0.00 0.00 66 1017.9
20260510135136 47 173 0.9 3.5 0.00 0.00 0.00 67 1017.8
20260510134632 47 171 0.9 3.5 0.00 0.00 0.00 68 1017.8
20260510134130 46 170 0.0 0.0 0.00 0.00 0.00 71 1017.8
20260510133631 44 0 0.0 0.0 0.00 0.00 0.00 72 1018.0
20260510133133 44 167 0.0 0.0 0.00 0.00 0.00 72 1017.9
20260510132631 43 167 0.0 0.0 0.00 0.00 0.00 72 1018.0
20260510132130 43 167 0.0 0.0 0.00 0.00 0.00 72 1018.0
20260510131629 43 167 0.0 0.0 0.00 0.00 0.00 73 1017.9
20260510131125 43 164 0.0 0.0 0.00 0.00 0.00 73 1017.9
20260510130617 43 163 0.0 0.0 0.00 0.00 0.00 73 1017.8
20260510130117 43 163 0.0 0.0 0.00 0.00 0.00 73 1017.8
20260510125618 43 163 0.0 0.0 0.00 0.00 0.00 73 1017.9
20260510125115 43 163 0.0 0.0 0.00 0.00 0.00 73 1018.0
20260510124614 43 163 0.0 0.0 0.00 0.00 0.00 73 1017.9
20260510124114 43 163 0.0 0.0 0.00 0.00 0.00 73 1018.0
20260510123615 43 163 0.0 0.0 0.00 0.00 0.00 73 1018.0
20260510122613 43 164 0.0 0.0 0.00 0.00 0.00 73 1018.1
20260510122111 43 163 0.0 0.0 0.00 0.00 0.00 72 1018.1
20260510121611 43 163 0.0 0.0 0.00 0.00 0.00 71 1018.0
20260510121110 44 163 0.0 0.0 0.00 0.00 0.00 72 1017.9
20260510120609 44 163 0.0 0.9 0.00 0.00 0.00 71 1017.9
20260510120107 44 163 0.0 0.9 0.00 0.00 0.00 70 1018.0
20260510115607 45 164 0.0 0.9 0.00 0.00 0.00 70 1017.9
20260510115107 45 164 0.0 0.9 0.00 0.00 0.00 72 1018.0
20260510114607 45 163 0.0 0.9 0.00 0.00 0.00 72 1018.0
20260510114107 45 164 0.0 0.0 0.00 0.00 0.00 71 1018.0
20260510113608 45 164 0.0 0.0 0.00 0.00 0.00 71 1018.0
20260510113107 45 164 0.0 3.5 0.00 0.00 0.00 70 1018.1
20260510112607 46 164 0.9 3.5 0.00 0.00 0.00 70 1018.1
20260510112105 46 164 0.0 3.5 0.00 0.00 0.00 71 1018.1
20260510111605 46 59 0.0 0.0 0.00 0.00 0.00 71 1018.1
20260510111106 46 59 0.0 0.0 0.00 0.00 0.00 70 1018.1
20260510110605 46 59 0.0 0.0 0.00 0.00 0.00 70 1018.4
20260510110107 46 59 0.0 0.0 0.00 0.00 0.00 71 1018.3
20260510105607 46 59 0.0 0.0 0.00 0.00 0.00 71 1018.3
20260510105106 46 59 0.0 0.0 0.00 0.00 0.00 71 1018.1
20260510104605 47 59 0.0 0.0 0.00 0.00 0.00 71 1018.1
20260510104105 47 59 0.0 0.0 0.00 0.00 0.00 71 1018.1
20260510103605 46 59 0.0 0.0 0.00 0.00 0.00 70 1018.3
20260510103106 46 59 0.0 0.0 0.00 0.00 0.00 69 1018.3
20260510102606 46 59 0.0 0.0 0.00 0.00 0.00 69 1018.3
20260510102106 47 59 0.0 0.0 0.00 0.00 0.00 68 1018.3
20260510101605 47 59 0.0 0.0 0.00 0.00 0.00 67 1018.4
20260510100603 47 59 0.0 0.0 0.00 0.00 0.00 65 1018.4
20260510095602 47 59 0.0 0.0 0.00 0.00 0.00 63 1018.4
20260510095104 47 59 0.0 0.0 0.00 0.00 0.00 63 1018.3
20260510094603 47 59 0.0 0.0 0.00 0.00 0.00 64 1018.1
20260510093605 47 59 0.0 0.0 0.00 0.00 0.00 63 1018.3
20260510093107 47 59 0.0 0.0 0.00 0.00 0.00 63 1018.1
20260510092606 47 59 0.0 0.0 0.00 0.00 0.00 63 1018.3
20260510092108 47 59 0.0 0.0 0.00 0.00 0.00 66 1018.1
20260510091602 47 59 0.0 0.0 0.00 0.00 0.00 66 1018.1
20260510091103 47 59 0.0 0.0 0.00 0.00 0.00 66 1018.1
20260510090603 48 59 0.0 0.0 0.00 0.00 0.00 65 1018.0
20260510085602 48 59 0.0 0.0 0.00 0.00 0.00 67 1018.1
20260510085103 48 59 0.0 0.0 0.00 0.00 0.00 67 1018.1
20260510083602 49 59 0.0 0.0 0.00 0.00 0.00 65 1018.3
20260510083103 49 59 0.0 0.0 0.00 0.00 0.00 66 1018.1
20260510082105 50 59 0.0 0.0 0.00 0.00 0.00 66 1018.1
20260510081602 50 59 0.0 0.0 0.00 0.00 0.00 66 1018.1
20260510081103 50 59 0.0 0.0 0.00 0.00 0.00 66 1018.1
20260510080603 50 59 0.0 0.0 0.00 0.00 0.00 65 1018.0
20260510080105 50 59 0.0 0.0 0.00 0.00 0.00 63 1018.0
20260510075605 50 59 0.0 0.0 0.00 0.00 0.00 62 1018.1
20260510075107 50 59 0.0 0.0 0.00 0.00 0.00 60 1018.3
20260510074605 50 59 0.0 0.0 0.00 0.00 0.00 61 1018.3
20260510074107 50 59 0.0 0.0 0.00 0.00 0.00 61 1018.1
20260510073604 51 59 0.0 0.0 0.00 0.00 0.00 61 1018.1
20260510072603 51 0 0.0 0.0 0.00 0.00 0.00 61 1018.1
20260510072103 51 0 0.0 0.0 0.00 0.00 0.00 60 1018.1
20260510071604 51 0 0.0 0.0 0.00 0.00 0.00 60 1018.0
20260510071101 51 0 0.0 0.0 0.00 0.00 0.00 60 1018.1
20260510070603 51 0 0.0 0.0 0.00 0.00 0.00 60 1018.0
20260510065602 51 0 0.0 0.0 0.00 0.00 0.00 59 1018.0
20260510065100 52 0 0.0 0.0 0.00 0.00 0.00 59 1018.0
20260510064100 52 0 0.0 0.0 0.00 0.00 0.00 59 1018.0
20260510063601 52 0 0.0 0.0 0.00 0.00 0.00 56 1018.1
20260510063100 52 0 0.0 0.0 0.00 0.00 0.00 57 1018.3
20260510062555 52 0 0.0 0.0 0.00 0.00 0.00 57 1018.1
20260510062055 53 0 0.0 0.0 0.00 0.00 0.00 57 1018.1
20260510061554 53 0 0.0 0.0 0.00 0.00 0.00 56 1018.3
20260510060556 53 0 0.0 0.0 0.00 0.00 0.00 57 1018.0
20260510055559 54 0 0.9 2.6 0.00 0.00 0.00 54 1018.0
20260510055054 54 0 0.9 1.7 0.00 0.00 0.00 55 1018.0
20260510054555 54 0 0.0 0.9 0.00 0.00 0.00 53 1017.9
20260510054050 55 0 0.0 0.9 0.00 0.00 0.00 53 1018.0
20260510053552 55 0 0.0 1.7 0.00 0.00 0.00 54 1017.9
20260510053052 55 0 0.9 2.6 0.00 0.00 0.00 53 1017.9
20260510051550 55 0 0.0 0.9 0.00 0.00 0.00 49 1017.9
20260510051050 56 0 0.0 0.9 0.00 0.00 0.00 47 1017.9
20260510050552 56 0 0.0 1.7 0.00 0.00 0.00 46 1017.9
20260510050050 56 329 0.9 1.7 0.00 0.00 0.00 45 1017.8
20260510045551 57 329 0.9 3.5 0.00 0.00 0.00 48 1018.0
20260510045051 58 328 0.9 3.5 0.00 0.00 0.00 44 1017.8
20260510044052 59 229 0.0 0.9 0.00 0.00 0.00 36 1017.8
20260510043551 59 228 0.0 0.9 0.00 0.00 0.00 39 1017.7
20260510043052 60 228 0.0 0.9 0.00 0.00 0.00 36 1017.7
20260510042553 60 229 0.9 1.7 0.00 0.00 0.00 36 1017.7
20260510042054 60 229 0.9 2.6 0.00 0.00 0.00 34 1017.7
20260510041547 60 228 1.7 2.6 0.00 0.00 0.00 34 1017.6
20260510041043 60 227 1.7 3.5 0.00 0.00 0.00 33 1017.6
20260510040542 61 228 1.7 3.5 0.00 0.00 0.00 34 1017.5
20260510040042 61 227 0.9 2.6 0.00 0.00 0.00 34 1017.5
20260510035538 61 226 0.9 3.5 0.00 0.00 0.00 34 1017.5
20260510034538 61 219 0.9 3.5 0.00 0.00 0.00 34 1017.3
20260510034038 61 209 0.9 2.6 0.00 0.00 0.00 34 1017.3
20260510033536 62 209 2.6 6.1 0.00 0.00 0.00 34 1017.2
20260510033037 62 221 2.6 6.1 0.00 0.00 0.00 34 1017.2
20260510032535 62 215 0.9 4.3 0.00 0.00 0.00 35 1017.1
20260510031533 62 225 1.7 3.5 0.00 0.00 0.00 34 1017.1
20260510031035 62 224 1.7 4.3 0.00 0.00 0.00 35 1017.1
20260510030532 62 227 1.7 4.3 0.00 0.00 0.00 36 1016.9
20260510030031 63 209 1.7 4.3 0.00 0.00 0.00 35 1016.8
20260510024531 64 222 0.9 2.6 0.00 0.00 0.00 34 1016.8
20260510024030 64 226 0.9 2.6 0.00 0.00 0.00 33 1016.9
20260510023531 64 226 0.9 2.6 0.00 0.00 0.00 33 1016.8
20260510022528 65 227 0.9 1.7 0.00 0.00 0.00 33 1016.8
20260510022026 65 227 0.9 2.6 0.00 0.00 0.00 30 1016.9
20260510021526 66 227 0.9 2.6 0.00 0.00 0.00 29 1016.8
20260510021027 66 226 0.9 2.6 0.00 0.00 0.00 29 1016.9
20260510020527 66 226 0.9 2.6 0.00 0.00 0.00 29 1016.8
20260510020024 67 198 0.0 2.6 0.00 0.00 0.00 28 1016.8
20260510015524 67 200 0.0 0.9 0.00 0.00 0.00 29 1016.7
20260510015024 67 186 0.0 2.6 0.00 0.00 0.00 30 1016.8
20260510014023 68 185 0.0 2.6 0.00 0.00 0.00 30 1016.8
20260510013522 69 184 0.0 0.9 0.00 0.00 0.00 31 1016.9
20260510013022 68 184 0.0 0.9 0.00 0.00 0.00 30 1016.9
20260510012522 68 184 0.0 1.7 0.00 0.00 0.00 30 1016.9
20260510012019 69 184 0.9 2.6 0.00 0.00 0.00 30 1016.9
20260510011519 69 184 0.9 2.6 0.00 0.00 0.00 28 1016.9
20260510010006 69 186 1.7 3.5 0.00 0.00 0.00 27 1016.8
20260510005505 69 223 0.9 3.5 0.00 0.00 0.00 25 1016.8
20260510004504 69 165 1.7 6.1 0.00 0.00 0.00 26 1016.8
20260510003505 69 192 1.7 7.0 0.00 0.00 0.00 26 1016.6
20260510003005 70 204 1.7 7.0 0.00 0.00 0.00 23 1016.7
20260510002503 70 200 1.7 5.2 0.00 0.00 0.00 27 1016.6
20260510001506 69 182 1.7 5.2 0.00 0.00 0.00 25 1016.7
20260510001004 70 171 1.7 3.5 0.00 0.00 0.00 26 1016.6
20260510000507 71 196 0.9 3.5 0.00 0.00 0.00 23 1016.6
20260510000005 71 184 0.9 5.2 0.00 0.00 0.00 23 1016.5
20260509235504 71 155 0.9 5.2 0.00 0.00 0.00 22 1016.6
20260509235004 71 254 0.9 4.3 0.00 0.00 0.00 22 1016.6
20260509234504 70 184 1.7 7.0 0.00 0.00 0.00 22 1016.7
20260509234004 70 203 1.7 7.0 0.00 0.00 0.00 24 1016.6
20260509233505 70 148 1.7 6.1 0.00 0.00 0.00 23 1016.7
20260509232504 71 249 1.7 5.2 0.00 0.00 0.00 21 1016.7
20260509232004 70 178 1.7 4.3 0.00 0.00 0.00 24 1016.7
20260509231505 70 155 1.7 8.7 0.00 0.00 0.00 23 1016.8
20260509231007 70 113 2.6 8.7 0.00 0.00 0.00 24 1016.8
20260509230506 71 186 1.7 7.0 0.00 0.00 0.00 22 1016.9
20260509230005 71 320 1.7 6.1 0.00 0.00 0.00 23 1017.1
20260509225510 70 155 1.7 4.3 0.00 0.00 0.00 23 1017.1
20260509225005 71 117 1.7 5.2 0.00 0.00 0.00 22 1017.2
20260509224504 72 182 1.7 6.1 0.00 0.00 0.00 21 1017.3
20260509224003 71 325 1.7 6.1 0.00 0.00 0.00 24 1017.2
20260509223503 70 329 1.7 6.1 0.00 0.00 0.00 23 1017.3
20260509223003 69 98 1.7 6.1 0.00 0.00 0.00 24 1017.2
20260509222503 69 134 1.7 6.1 0.00 0.00 0.00 25 1017.3
20260509222004 69 215 2.6 6.1 0.00 0.00 0.00 25 1017.3
20260509221502 69 225 1.7 6.1 0.00 0.00 0.00 25 1017.3
20260509221003 69 290 2.6 6.1 0.00 0.00 0.00 24 1017.4
20260509220503 69 151 2.6 6.1 0.00 0.00 0.00 23 1017.4
20260509220003 69 196 2.6 6.1 0.00 0.00 0.00 25 1017.4
20260509215505 69 168 2.6 9.6 0.00 0.00 0.00 24 1017.4
20260509214504 69 133 2.6 4.3 0.00 0.00 0.00 24 1017.4
20260509214003 69 213 2.6 4.3 0.00 0.00 0.00 25 1017.4
20260509213503 70 151 1.7 4.3 0.00 0.00 0.00 25 1017.5
20260509213004 69 126 1.7 7.0 0.00 0.00 0.00 26 1017.5
20260509212002 68 208 3.5 9.6 0.00 0.00 0.00 23 1017.5
20260509211502 68 122 2.6 8.7 0.00 0.00 0.00 25 1017.6
20260509211002 68 107 2.6 6.1 0.00 0.00 0.00 26 1017.6
20260509210503 67 135 2.6 6.1 0.00 0.00 0.00 25 1017.7
20260509210003 67 133 1.7 5.2 0.00 0.00 0.00 27 1017.7
20260509205503 67 116 1.7 5.2 0.00 0.00 0.00 27 1017.8
20260509205002 67 105 2.6 4.3 0.00 0.00 0.00 26 1017.8
20260509204458 68 167 2.6 7.0 0.00 0.00 0.00 26 1017.8
20260509203953 67 244 2.6 7.0 0.00 0.00 0.00 27 1017.8
20260509203445 68 183 1.7 6.1 0.00 0.00 0.00 27 1017.9
20260509202939 68 127 1.7 5.2 0.00 0.00 0.00 27 1017.9
20260509202434 68 109 1.7 6.1 0.00 0.00 0.00 28 1017.9
20260509201434 66 119 1.7 4.3 0.00 0.00 0.00 27 1017.8
20260509200934 66 109 1.7 4.3 0.00 0.00 0.00 30 1017.8
20260509200436 66 150 1.7 7.0 0.00 0.00 0.00 27 1017.8
20260509195935 67 146 2.6 7.0 0.00 0.00 0.00 25 1017.8
20260509195434 66 345 2.6 7.8 0.00 0.00 0.00 28 1017.8
20260509194936 67 134 1.7 7.8 0.00 0.00 0.00 27 1017.8
20260509194434 67 223 1.7 3.5 0.00 0.00 0.00 26 1017.9
20260509193431 66 94 1.7 4.3 0.00 0.00 0.00 30 1017.9
20260509192935 66 60 2.6 8.7 0.00 0.00 0.00 26 1017.7
20260509191933 66 153 1.7 4.3 0.00 0.00 0.00 29 1018.0
20260509191434 65 203 2.6 7.8 0.00 0.00 0.00 27 1018.1
20260509190431 65 136 3.5 7.8 0.00 0.00 0.00 27 1018.1
20260509185933 64 132 2.6 7.8 0.00 0.00 0.00 30 1018.1
20260509185431 64 119 2.6 7.8 0.00 0.00 0.00 30 1018.0
20260509184933 63 9 2.6 4.3 0.00 0.00 0.00 29 1018.0
20260509184431 62 128 3.5 6.1 0.00 0.00 0.00 30 1018.3
20260509183933 62 128 3.5 6.1 0.00 0.00 0.00 30 1018.1
20260509182936 63 159 2.6 7.0 0.00 0.00 0.00 29 1018.3
20260509182433 62 114 2.6 7.0 0.00 0.00 0.00 30 1018.4
20260509181934 63 119 2.6 7.0 0.00 0.00 0.00 28 1018.4
20260509180936 62 136 2.6 7.8 0.00 0.00 0.00 29 1018.3
20260509180431 62 157 2.6 7.8 0.00 0.00 0.00 29 1018.5
20260509175933 62 206 3.5 7.0 0.00 0.00 0.00 30 1018.5
20260509175432 61 123 2.6 6.1 0.00 0.00 0.00 31 1018.3
20260509173933 62 176 2.6 8.7 0.00 0.00 0.00 29 1018.5
20260509173430 62 201 2.6 8.7 0.00 0.00 0.00 29 1018.5
20260509172932 62 38 1.7 5.2 0.00 0.00 0.00 31 1018.5
20260509172430 62 170 1.7 6.1 0.00 0.00 0.00 31 1018.4
20260509171936 62 205 2.6 6.1 0.00 0.00 0.00 30 1018.4
20260509171430 61 145 2.6 7.8 0.00 0.00 0.00 31 1018.3
20260509170937 61 208 2.6 7.8 0.00 0.00 0.00 29 1018.3
20260509170432 60 125 2.6 7.8 0.00 0.00 0.00 31 1018.3
20260509165932 60 123 3.5 7.8 0.00 0.00 0.00 33 1018.4
20260509165431 59 132 3.5 7.8 0.00 0.00 0.00 31 1018.4
20260509164937 60 140 2.6 7.0 0.00 0.00 0.00 31 1018.3
20260509164431 60 152 3.5 5.2 0.00 0.00 0.00 35 1018.3
20260509163933 60 124 3.5 7.8 0.00 0.00 0.00 36 1018.4
20260509163431 59 128 3.5 7.8 0.00 0.00 0.00 37 1018.4
20260509162933 59 268 3.5 7.0 0.00 0.00 0.00 33 1018.4
20260509162431 59 138 3.5 7.0 0.00 0.00 0.00 34 1018.4
20260509161933 59 109 2.6 6.1 0.00 0.00 0.00 37 1018.4
20260509161429 59 0 2.6 6.1 0.00 0.00 0.00 37 1018.4
20260509160932 58 179 3.5 8.7 0.00 0.00 0.00 39 1018.4
20260509160430 58 165 2.6 8.7 0.00 0.00 0.00 36 1018.4
20260509155931 58 132 2.6 7.0 0.00 0.00 0.00 36 1018.4
20260509155429 58 140 3.5 7.8 0.00 0.00 0.00 38 1018.3
20260509154931 58 150 2.6 7.8 0.00 0.00 0.00 38 1018.4
20260509154429 58 142 2.6 4.3 0.00 0.00 0.00 38 1018.4
20260509153934 58 134 2.6 4.3 0.00 0.00 0.00 36 1018.4
20260509153431 57 158 1.7 4.3 0.00 0.00 0.00 41 1018.4
20260509152934 56 165 1.7 3.5 0.00 0.00 0.00 42 1018.4
20260509152428 56 191 1.7 3.5 0.00 0.00 0.00 45 1018.4
20260509151933 56 181 0.9 4.3 0.00 0.00 0.00 43 1018.4
20260509151429 56 241 0.9 4.3 0.00 0.00 0.00 43 1018.3
20260509150932 56 211 0.9 3.5 0.00 0.00 0.00 43 1018.3
20260509150428 56 207 0.9 4.3 0.00 0.00 0.00 43 1018.1
20260509145428 55 221 2.6 6.1 0.00 0.00 0.00 43 1018.0
20260509144926 55 222 2.6 6.1 0.00 0.00 0.00 42 1017.9
20260509144426 54 208 1.7 5.2 0.00 0.00 0.00 44 1018.0
20260509143926 54 207 1.7 3.5 0.00 0.00 0.00 46 1017.9
20260509143426 54 209 0.9 3.5 0.00 0.00 0.00 50 1017.8
20260509142926 53 0 0.9 1.7 0.00 0.00 0.00 56 1017.8
20260509142425 53 0 0.9 1.7 0.00 0.00 0.00 58 1017.8
20260509141924 53 173 0.9 1.7 0.00 0.00 0.00 64 1017.8